COSMOS 1275 DEB, 12759

Orbit data source: Space-Track

COSMOS 1275 DEB, 12759 is space debris in LEO originally from a launch on Thu, 04 Jun 1981 UTC launched from the Plesetsk Missile And Space Complex (PKMTR). Debris objects in space refer to the collection of defunct objects orbiting the Earth. Examples of debris include non-operational satellites, rocket bodies, and fragments generated from explosions, collisions, or faulty payload assembly.

Loading next visibility...
Identifier
12759, 1981-053DC
Orbit
LEO
Country
Flag of CISCIS
Related business
Manufacturer
Unknown
Mission
Spacecraft
Bus & Motor
Unknown
Mass
Unknown
Launch date (UTC)
1981-06-04 (45 years ago)
Launch vehicle
Unknown
Launch site
Plesetsk Missile And Space Complex (PKMTR)
Object type
Payload
Rocket body
Debris
Shape & HBR
Unknown shape, 0.1 m
Radar Cross Section
Small (<0.1 m²)

Expand to show TLE details & history
Last TLE update: 15 hours ago

TLE from 15 hours ago
0 COSMOS 1275 DEB
1 12759U 81053DC  26119.40077550  .00001096  00000-0  66541-3 0  9999
2 12759  82.8588  92.7362 0046752  35.9582  88.6212 14.04964230275408
Epoch: 2026-04-29T09:37Z
TLE epoch observation values (Epoch: 2026-04-29T09:37:07.003Z)
Latitude
54.35662°
Longitude
-98.91414°
Altitude
884.963 km
Speed
7.415 km/s
True Right ascension
17h 30m 54s
True Declination
54° 11' 47"
Sunlit
Object was in daylight at epoch
Visualization orbit readout
Latitude
Unknown
Longitude
Unknown
Altitude
Unknown
Speed
Unknown
Apparent Right ascension
Unknown
Apparent Declination
Unknown
Sunlit
N/A
Visualization observer readout
Local Sidereal Time
07:44:31
Azimuth
Unknown
Elevation
Unknown
Doppler factor
Unknown
Orbital elements
Apogee altitude
907.67 km
Perigee altitude
839.862 km
Semi-major axis
7,251.903 km
Eccentricity
0.00468
Inclination
82.8588°
RAAN
92.7362°
Arg. of periapsis
35.9582°
True anomaly
89.15685°
Mean anomaly
88.6212°
Eccentric anomaly
88.88902°
Mean motion
3.51451 °/min
Orbital period
102.43 mins
BSTAR
0.00066541
Loading maneuver chart data...
Computing Atmospheric mass density...
Loading historical data...
Loading historical data...
Loading historical data...
Loading historical data...
Loading historical data...
Loading historical data...
Loading historical data...

Documentation

Showing up to 5 results
|